#timestamp,LO_Frequency,Hit,StdDev 
1550271615.2,286047002.9,N
1550271635.1,286047003.1,N
1550271636.0,286047003.1,N
1550271655.8,286047011.5,N
1550271675.6,286047002.6,N
1550271695.5,286047008.4,N
1550271715.3,286047006.6,N
1550271765.2,286047004.1,E
1550271775.1,286046996.8,N
1550271795.8,286046994.9,P
1550271815.7,286046993.0,P
1550271835.5,286046997.1,N
1550271855.4,286046997.1,N
1550271875.2,286046992.3,Y
1550271895.0,286047000.4,P
1550271895.9,286047000.4,N
1550271915.8,286047003.0,N
1550271935.6,286047005.2,N
1550271955.5,286047006.7,N
1550271975.3,286047007.8,N
1550271995.1,286047008.7,N
1550272015.9,286047014.3,Y
1550272035.7,286047011.0,P
1550272055.5,286047006.1,N
1550272075.4,286047013.8,P
1550272095.2,286047006.9,N
1550272145.1,286047006.6,E
1550272155.0,286047004.7,N
1550272155.9,286047004.7,P
1550272175.8,286047004.0,P
1550272195.6,286047010.5,Y
1550272215.4,286047004.7,P
1550272235.3,286047007.5,P
1550272255.1,286047007.9,P
1550272275.9,286047008.3,Y
1550272295.7,286047004.1,P
1550272315.5,286047002.1,N
1550272335.4,286046997.3,N
1550272355.2,286046997.1,N
1550272375.0,286047003.8,N
1550272375.9,286047003.8,N
1550272395.8,286047000.2,N
1550272415.6,286046992.4,N
1550272435.5,286046992.8,N
1550272455.3,286046992.8,N
1550272475.1,286046996.1,N
1550272495.9,286046998.6,N
1550272515.7,286047005.8,N
1550272535.5,286047002.6,N
1550272555.4,286047002.6,N
1550272575.2,286047001.6,N
1550272595.1,286047005.4,N
1550272596.0,286047005.4,N
1550272615.8,286047008.7,N
1550272635.6,286047002.6,N
1550272655.5,286047000.8,N
1550272675.3,286047003.5,N
1550272695.2,286047006.4,N
1550272715.0,286047008.3,N
1550272715.9,286047008.3,N
1550272735.8,286047007.8,N
1550272755.6,286047006.7,N
1550272775.4,286047009.6,N
1550272795.3,286047008.2,N
1550272815.1,286047010.8,N
1550272835.9,286047016.5,Y
1550272855.7,286047015.0,P
1550272875.5,286047014.5,N
1550272895.4,286047014.2,N
1550272915.2,286047015.0,N
1550272935.1,286047012.7,N
1550272936.0,286047012.7,N
1550272955.8,286047011.6,N
1550272975.6,286047015.5,Y
1550272995.5,286046993.7,P
1550273015.3,286046990.5,N
1550273035.2,286046992.4,N
1550273055.9,286046992.9,N
1550273075.7,286046995.5,N
1550273095.6,286046993.8,N
1550273115.4,286047001.1,N
1550273135.2,286047004.2,N
1550273155.1,286047011.7,N
1550273156.0,286047011.7,N
1550273175.8,286047008.5,N
1550273195.7,286047006.2,N
1550273215.5,286047016.6,N
1550273235.3,286047019.7,N
1550273255.2,286047020.6,N
1550273275.0,286047018.4,N
1550273275.9,286047018.4,N
1550273295.7,286047019.2,N
1550273315.6,286047020.2,N
1550273335.4,286047020.2,N
1550273355.3,286047015.9,N
1550273375.1,286047015.5,N
1550273395.8,286047014.3,N
1550273415.7,286047020.1,N
1550273435.5,286047012.8,N
1550273455.4,286047018.7,N
1550273475.2,286047009.5,N
1550273495.0,286047014.1,N
1550273495.9,286047014.1,N
1550273515.8,286047006.2,N
1550273535.6,286047012.6,N
1550273555.4,286047022.5,N
1550273575.3,286047020.7,N
1550273595.1,286047014.3,N
1550273615.9,286047014.6,N
1550273635.7,286047021.3,Y
1550273655.6,286047003.3,P
1550273675.4,286047007.4,N
1550273695.2,286047011.5,N
1550273715.1,286047008.4,N
1550273716.0,286047008.4,N
1550273735.8,286047006.3,N
1550273755.4,286047010.7,Y
1550273775.2,286047003.2,P
1550273795.1,286047008.2,P
1550273796.0,286047008.2,P
1550273815.8,286047010.1,Y
1550273835.7,286047004.4,P
1550273855.5,286046998.2,N
1550273875.3,286046997.4,N
1550273895.2,286046999.5,N
1550273915.0,286046992.6,N
1550273915.9,286046992.6,N
1550273935.8,286046990.4,N
1550273955.6,286046992.2,N
1550273975.4,286046990.6,N
1550273995.3,286046994.4,N
1550274015.1,286046996.3,N
1550274035.8,286046997.0,N
1550274055.7,286046990.2,N
1550274075.5,286046995.2,N
1550274095.4,286046997.0,N
1550274115.2,286046991.5,N
1550274135.0,286046987.7,N
1550274135.9,286046987.7,N
1550274155.8,286046989.5,N
1550274175.6,286046997.8,N
1550274195.4,286046995.2,N
1550274215.3,286046991.4,N
1550274235.1,286046990.8,N
1550274255.9,286046995.0,N
1550274275.7,286046994.6,N
1550274295.5,286046997.0,N
1550274315.4,286047001.1,N
1550274335.2,286047002.8,N
1550274355.1,286047005.1,N
1550274356.0,286047005.1,N
1550274375.8,286047003.1,N
1550274395.6,286047005.7,N
1550274415.5,286047002.9,N
1550274435.3,286047007.5,N
1550274455.1,286047010.1,N
1550274475.9,286047008.3,N
1550274495.7,286047009.1,N
1550274515.6,286047013.5,N
1550274535.4,286047010.2,N
1550274555.2,286047005.7,N
1550274575.1,286047006.7,N
1550274576.0,286047006.7,N
1550274595.8,286047005.0,N
1550274615.7,286047010.8,N
1550274635.5,286047012.4,N
1550274655.3,286047008.6,N
1550274675.2,286047008.6,N
1550274695.0,286047004.7,N
1550274695.9,286047004.7,N
1550274715.7,286047010.1,N
1550274735.6,286047009.8,N
1550274755.4,286047013.2,N
1550274775.3,286047013.7,N
1550274795.1,286047003.3,N
1550274815.8,286047004.4,N
1550274835.7,286046998.6,N
1550274855.5,286047002.7,N
1550274875.4,286046993.3,N
1550274895.2,286046994.0,N
1550274915.0,286046997.5,N
1550274915.9,286046997.5,N
1550274935.8,286046995.6,N
1550274955.6,286046992.9,N
1550274975.4,286046990.1,N
1550274995.3,286046985.9,N
1550275015.1,286046987.0,N
1550275035.9,286046997.1,N
1550275055.7,286047000.5,N
1550275075.5,286047007.6,N
1550275095.4,286047008.9,N
1550275115.2,286047010.0,N
1550275135.1,286047015.6,N
1550275136.0,286047015.6,N
1550275155.8,286047018.8,N
1550275175.6,286047014.2,N
1550275195.5,286047012.8,N
